Date String (YYYY-MM-DD hh:mm:ss) UTC,Instrument flags,absolute air pressure of the measurement (hPa),sample flow rate (lpm),inlet stack bypass flow (lpm),air temperature of the measurement (°C),ambient temperature measured by the external sensor (°C),aerosol sample conditioner tube jacket temperature (°C),OPC LED temperature (°C),internal box temperature (°C),relative humidity of the measurement (%),span deviation,mass concentration of particles derived from Lorenz-Mie calculation of OPC scattering (μg/m³),mass concentration of particles derived from Lorenz-Mie calculation of OPC scattering (μg/m³),mass concentration of particles derived from Lorenz-Mie calculation of OPC scattering (μg/m³)
DateTimeUTC,F1_M11,P_M11,Q1_M11,Q2_M11,T1_M11,T2_M11,T3_M11,T4_M11,T5_M11,U1_M11,ZSPAN_M11,X2_M11,X0_M11,X1_M11
2024-01-02 07:00:00,SystemResetWarning,0832.9,5.00,000.00,024.4,023.5,000.0,032.7,025.9,11.4,0005.4,0006.02,0011.59,0005.48
2024-01-02 07:01:00,SystemResetWarning,0832.9,5.00,000.00,024.4,023.5,000.0,032.7,025.8,11.4,0005.2,0006.05,0011.64,0005.52
2024-01-02 07:02:00,SystemResetWarning,0832.9,5.00,000.00,024.4,023.5,000.0,032.7,025.7,11.4,0004.7,0006.06,0011.47,0005.54
2024-01-02 07:03:00,SystemResetWarning,0832.9,5.00,000.00,024.4,023.5,000.0,032.7,025.7,11.3,0001.6,0006.00,0011.11,0005.52
2024-01-02 07:04:00,SystemResetWarning,0833.0,5.00,000.00,024.4,023.5,000.0,032.7,025.7,11.3,0000.0,0005.96,0010.66,0005.50
2024-01-02 07:05:00,SystemResetWarning,0833.0,5.00,000.00,024.4,023.5,000.0,032.7,025.7,11.3,0000.0,0005.96,0010.76,0005.49
2024-01-02 07:06:00,SystemResetWarning,0832.9,5.00,000.00,024.3,023.5,000.0,032.7,025.6,11.4,0002.0,0005.98,0010.75,0005.49
2024-01-02 07:07:00,SystemResetWarning,0832.9,5.00,000.00,024.3,023.5,000.0,032.7,025.6,11.4,0004.8,0005.94,0009.80,0005.46
2024-01-02 07:08:00,SystemResetWarning,0832.9,5.00,000.00,024.3,023.5,000.0,032.7,025.6,11.4,0002.3,0005.90,0009.62,0005.42
2024-01-02 07:09:00,SystemResetWarning,0833.2,5.00,000.00,024.3,023.5,000.0,032.7,025.6,11.4,0001.0,0005.83,0009.51,0005.37
2024-01-02 07:10:00,SystemResetWarning,0833.6,5.00,000.00,024.3,023.5,000.0,032.7,025.7,11.4,0001.2,0005.76,0009.25,0005.33
2024-01-02 07:11:00,SystemResetWarning,0833.4,5.00,000.00,024.3,023.5,000.0,032.7,025.6,11.4,0001.0,0005.69,0009.21,0005.28
2024-01-02 07:12:00,SystemResetWarning,0833.2,5.00,000.00,024.3,023.5,000.0,032.7,025.6,11.4,-001.1,0005.63,0009.17,0005.20
2024-01-02 07:13:00,SystemResetWarning,0833.0,5.00,000.00,024.3,023.4,000.0,032.7,025.6,11.4,-000.6,0005.56,0009.17,0005.11
2024-01-02 07:14:00,SystemResetWarning,0833.0,5.00,000.00,024.3,023.4,000.0,032.6,025.6,11.4,0000.1,0005.53,0009.23,0005.07
2024-01-02 07:15:00,SystemResetWarning,0833.0,5.00,000.00,024.3,023.4,000.0,032.6,025.6,11.4,0002.0,0005.48,0009.10,0005.02
2024-01-02 07:16:00,SystemResetWarning,0833.2,4.99,000.00,024.3,023.4,000.0,032.6,025.6,11.4,0002.0,0005.47,0009.15,0004.97
2024-01-02 07:17:00,SystemResetWarning,0833.1,4.99,000.00,024.3,023.4,000.0,032.6,025.6,11.4,0001.5,0005.42,0009.69,0004.90
2024-01-02 07:18:00,SystemResetWarning,0833.0,5.00,000.00,024.3,023.4,000.0,032.6,025.6,11.4,0000.5,0005.36,0010.43,0004.85
2024-01-02 07:19:00,SystemResetWarning,0833.0,5.00,000.00,024.3,023.4,000.0,032.6,025.6,11.4,0000.0,0005.34,0010.37,0004.84
2024-01-02 07:20:00,SystemResetWarning,0833.0,5.00,000.00,024.3,023.4,000.0,032.6,025.6,11.4,0000.0,0005.32,0010.46,0004.82
2024-01-02 07:21:00,SystemResetWarning,0833.3,5.00,000.00,024.3,023.4,000.0,032.6,025.6,11.4,0000.4,0005.37,0010.63,0004.82
2024-01-02 07:22:00,SystemResetWarning,0833.3,5.00,000.00,024.3,023.4,000.0,032.6,025.6,11.4,0000.0,0005.38,0010.70,0004.81
2024-01-02 07:23:00,SystemResetWarning,0833.5,4.99,000.00,024.3,023.4,000.0,032.6,025.6,11.4,0003.1,0005.39,0010.67,0004.82
2024-01-02 07:24:00,SystemResetWarning,0833.3,5.00,000.00,024.3,023.4,000.0,032.6,025.6,11.4,0000.0,0005.38,0010.56,0004.85
2024-01-02 07:25:00,SystemResetWarning,0833.2,5.00,000.00,024.3,023.4,000.0,032.6,025.6,11.4,0000.0,0005.41,0010.66,0004.88
2024-01-02 07:26:00,SystemResetWarning,0833.2,5.00,000.00,024.3,023.4,000.0,032.6,025.6,11.4,0000.0,0005.48,0011.58,0004.91
2024-01-02 07:27:00,SystemResetWarning,0832.9,5.00,000.00,024.3,023.4,000.0,032.6,025.6,11.4,0000.0,0005.48,0011.80,0004.93
2024-01-02 07:28:00,SystemResetWarning,0833.0,5.00,000.00,024.3,023.4,000.0,032.6,025.6,11.4,0000.9,0005.49,0011.47,0004.96
2024-01-02 07:29:00,SystemResetWarning,0833.0,5.00,000.00,024.3,023.4,000.0,032.6,025.6,11.4,0003.1,0005.51,0010.81,0004.99
2024-01-02 07:30:00,SystemResetWarning,0833.0,5.00,000.00,024.2,023.4,000.0,032.6,025.6,11.4,0002.3,0005.49,0010.75,0004.97
2024-01-02 07:31:00,SystemResetWarning,0833.0,5.00,000.00,024.2,023.4,000.0,032.6,025.6,11.4,0003.2,0005.52,0010.74,0004.98
2024-01-02 07:32:00,SystemResetWarning,0833.0,5.00,000.00,024.2,023.4,000.0,032.6,025.6,11.4,0003.7,0005.50,0010.64,0004.99
2024-01-02 07:33:00,SystemResetWarning,0833.1,5.00,000.00,024.2,023.4,000.0,032.6,025.6,11.4,0003.1,0005.48,0010.55,0004.98
2024-01-02 07:34:00,SystemResetWarning,0833.1,5.00,000.00,024.2,023.4,000.0,032.6,025.5,11.4,0002.8,0005.45,0010.90,0004.97
2024-01-02 07:35:00,SystemResetWarning,0833.1,5.00,000.00,024.2,023.4,000.0,032.6,025.6,11.4,0001.9,0005.46,0011.66,0004.97
2024-01-02 07:36:00,SystemResetWarning,0833.0,5.00,000.00,024.2,023.4,000.0,032.6,025.6,11.4,0000.8,0005.41,0011.47,0004.92
2024-01-02 07:37:00,SystemResetWarning,0833.0,5.00,000.00,024.2,023.4,000.0,032.6,025.6,11.4,0002.6,0005.35,0010.65,0004.86
2024-01-02 07:38:00,SystemResetWarning,0833.0,5.00,000.00,024.2,023.4,000.0,032.6,025.6,11.4,0000.7,0005.29,0010.79,0004.82
2024-01-02 07:39:00,SystemResetWarning,0833.0,5.00,000.00,024.2,023.4,000.0,032.6,025.5,11.4,0000.0,0005.25,0010.73,0004.78
2024-01-02 07:40:00,SystemResetWarning,0833.0,5.00,000.00,024.2,023.4,000.0,032.6,025.5,11.4,0000.0,0005.19,0010.86,0004.74
2024-01-02 07:41:00,SystemResetWarning,0833.0,5.00,000.00,024.2,023.4,000.0,032.6,025.5,11.4,0000.0,0005.14,0010.85,0004.71
2024-01-02 07:42:00,SystemResetWarning,0833.1,5.00,000.00,024.2,023.4,000.0,032.5,025.5,11.4,0000.0,0005.08,0010.79,0004.66
2024-01-02 07:43:00,SystemResetWarning,0833.2,5.00,000.00,024.2,023.4,000.0,032.5,025.5,11.4,0000.0,0005.04,0010.84,0004.63
2024-01-02 07:44:00,SystemResetWarning,0833.1,5.01,000.00,024.2,023.3,000.0,032.5,025.5,11.4,0000.0,0005.03,0011.21,0004.59
2024-01-02 07:45:00,SystemResetWarning,0833.3,5.00,000.00,024.2,023.4,000.0,032.5,025.5,11.5,0000.0,0005.01,0011.39,0004.55
2024-01-02 07:46:00,SystemResetWarning,0833.5,5.00,000.00,024.2,023.4,000.0,032.5,025.5,11.5,0000.0,0004.97,0011.74,0004.51
2024-01-02 07:47:00,SystemResetWarning,0833.1,5.01,000.00,024.2,023.3,000.0,032.5,025.5,11.4,-000.0,0004.90,0011.61,0004.45
2024-01-02 07:48:00,SystemResetWarning,0833.1,5.01,000.00,024.2,023.3,000.0,032.5,025.5,11.4,-000.2,0004.89,0012.00,0004.46
2024-01-02 07:49:00,SystemResetWarning,0833.1,5.00,000.00,024.2,023.3,000.0,032.5,025.5,11.4,0000.0,0004.88,0011.82,0004.45
2024-01-02 07:50:00,SystemResetWarning,0833.2,4.99,000.00,024.2,023.3,000.0,032.5,025.5,11.4,0000.2,0004.86,0011.11,0004.41
2024-01-02 07:51:00,SystemResetWarning,0833.2,4.99,000.00,024.2,023.3,000.0,032.5,025.5,11.4,-000.5,0004.85,0011.06,0004.40
2024-01-02 07:52:00,SystemResetWarning,0833.1,5.00,000.00,024.2,023.3,000.0,032.5,025.5,11.4,0000.0,0004.82,0010.54,0004.37
2024-01-02 07:53:00,SystemResetWarning,0833.1,5.00,000.00,024.2,023.3,000.0,032.5,025.5,11.4,0000.0,0004.82,0010.61,0004.34
2024-01-02 07:54:00,SystemResetWarning,0833.1,5.00,000.00,024.2,023.3,000.0,032.5,025.5,11.4,0000.0,0004.76,0010.69,0004.29
2024-01-02 07:55:00,SystemResetWarning,0833.1,5.00,000.00,024.2,023.3,000.0,032.5,025.5,11.4,0000.0,0004.67,0010.58,0004.22
2024-01-02 07:56:00,SystemResetWarning,0833.1,5.00,000.00,024.2,023.3,000.0,032.5,025.5,11.4,0000.0,0004.60,0010.32,0004.20
2024-01-02 07:57:00,SystemResetWarning,0833.1,5.00,000.00,024.2,023.3,000.0,032.5,025.5,11.4,0000.0,0004.57,0009.03,0004.20
2024-01-02 07:58:00,SystemResetWarning,0833.2,5.00,000.00,024.2,023.3,000.0,032.5,025.5,11.4,0000.0,0004.58,0008.80,0004.20
2024-01-02 07:59:00,SystemResetWarning,0833.1,5.00,000.00,024.2,023.3,000.0,032.5,025.5,11.4,0000.0,0004.54,0008.26,0004.17
